Location: Waco, TX
(31.5480°N, 97.1670°W)
Time: 22:34:41
(UTC-05:00)

ISS - Pass Details

Date: 16 October 2018
Orbit: 403 x 408 km, 51.6° (Epoch: 21 October)

Event Time Altitude Azimuth Distance (km) Brightness Sun altitude
Rises 09:58:52 0° 205° (SSW) 2,305 0.1 28.2°
Reaches altitude 10° 10:01:03 10° 195° (SSW) 1,451 -0.7 28.6°
Maximum altitude 10:03:59 32° 130° (SE) 722 0.4 29.1°
Drops below altitude 10° 10:06:57 10° 65° (ENE) 1,461 -0.5 29.6°
Sets 10:09:10 0° 55° (NE) 2,326 0.3 30.0°
